Franklin, NC

2:35 PM EDT on September 26, 2017 (GMT -0400)
Franklin

Weather History for K1A5 - January, 2007

Change the Weather History Date:

Tuesday, January 9, 2007

  Actual Average (KTOC) Record (KTOC)
Temperature  
Mean Temperature 31 °F -  
Max Temperature 39 °F 48 °F 52 °F (2016)
Min Temperature 23 °F 29 °F 20 °F (2015)
Degree Days  
Heating Degree Days 34    
Moisture  
Dew Point 25 °F    
Average Humidity 80    
Maximum Humidity 93    
Minimum Humidity 60    
Precipitation  
Precipitation 0.00 in - - ()
Sea Level Pressure  
Sea Level Pressure 30.09 in    
Wind  
Wind Speed 2 mph (NW)    
Max Wind Speed 14 mph    
Max Gust Speed 30 mph    
Visibility 9 miles    
Events Snow    
Averages and records for this station are not official NWS values.
T = Trace of Precipitation, MM = Missing Value Source: NWS Daily Summary

Daily Weather History Graph

Daily Weather History Graph

Search for Another Location

Airport or City:

Trip Planner

Search our weather history database for the weather conditions in past years. The results will help you decide how hot, cold, wet, or windy it might be!

Date:

Astronomy

Jan. 09, 2007 Rise Set
Actual Time 7:42 AM EST 5:38 PM EST
Civil Twilight 7:14 AM EST 6:06 PM EST
Nautical Twilight 6:43 AM EST 6:38 PM EST
Astronomical Twilight 6:12 AM EST 7:08 PM EST
Moon 11:42 PM EST (1/9) 11:11 AM EST (1/9)
Length of Visible Light 10h 51m
Length of Day
9h 56m
Waning Gibbous, 67% of the Moon is Illuminated
Jan 9
Waning Gibbous
Jan 11
Last Quarter
Jan 18
New
Jan 25
First Quarter
Feb 2
Full

Hourly Weather History & Observations

Time (EST) Temp. Windchill Dew Point Humidity Pressure Visibility Wind Dir Wind Speed Gust Speed Precip Events Conditions
12:00 AM 26.6 °F - 23.0 °F 86% 30.10 in 10.0 mi Calm Calm - N/A   Clear
12:20 AM 26.6 °F - 23.0 °F 86% 30.10 in 10.0 mi Calm Calm - N/A   Clear
12:40 AM 26.6 °F - 23.0 °F 86% 30.09 in 10.0 mi Calm Calm - N/A   Clear
1:00 AM 26.6 °F - 23.0 °F 86% 30.09 in 10.0 mi Calm Calm - N/A   Clear
1:20 AM 26.6 °F - 23.0 °F 86% 30.10 in 10.0 mi Calm Calm - N/A   Clear
1:40 AM 26.6 °F - 21.2 °F 80% 30.11 in 10.0 mi Calm Calm - N/A   Clear
2:00 AM 26.6 °F - 21.2 °F 80% 30.11 in 10.0 mi Calm Calm - N/A   Clear
2:20 AM 24.8 °F - 21.2 °F 86% 30.10 in 10.0 mi Calm Calm - N/A   Clear
2:40 AM 26.6 °F - 21.2 °F 80% 30.11 in 10.0 mi Calm Calm - N/A   Clear
3:00 AM 24.8 °F - 21.2 °F 86% 30.10 in 10.0 mi Calm Calm - N/A   Clear
3:20 AM 24.8 °F - 21.2 °F 86% 30.10 in 10.0 mi Calm Calm - N/A   Clear
3:40 AM 23.0 °F - 21.2 °F 93% 30.09 in 10.0 mi Calm Calm - N/A   Clear
4:00 AM 23.0 °F - 21.2 °F 93% 30.09 in 10.0 mi Calm Calm - N/A   Clear
4:20 AM 23.0 °F - 21.2 °F 93% 30.08 in 10.0 mi Calm Calm - N/A   Clear
4:40 AM 23.0 °F - 21.2 °F 93% 30.08 in 10.0 mi Calm Calm - N/A   Clear
5:00 AM 23.0 °F - 21.2 °F 93% 30.07 in 10.0 mi Calm Calm - N/A   Clear
5:20 AM 23.0 °F - 21.2 °F 93% 30.06 in 10.0 mi Calm Calm - N/A   Clear
5:40 AM 23.0 °F - 19.4 °F 86% 30.07 in 10.0 mi Calm Calm - N/A   Clear
6:00 AM 23.0 °F - 19.4 °F 86% 30.07 in 10.0 mi Calm Calm - N/A   Clear
6:20 AM 23.0 °F - 19.4 °F 86% 30.06 in 10.0 mi Calm Calm - N/A   Clear
6:40 AM 23.0 °F - 19.4 °F 86% 30.06 in 10.0 mi Calm Calm - N/A   Clear
7:00 AM 23.0 °F - 21.2 °F 93% 30.05 in 10.0 mi Calm Calm - N/A   Clear
7:20 AM 23.0 °F - 21.2 °F 93% 30.05 in 10.0 mi Calm Calm - N/A   Clear
7:40 AM 23.0 °F - 19.4 °F 86% 30.04 in 10.0 mi Calm Calm - N/A   Mostly Cloudy
8:00 AM 23.0 °F - 21.2 °F 93% 30.04 in 10.0 mi Calm Calm - N/A   Overcast
8:20 AM 24.8 °F - 21.2 °F 86% 30.04 in 10.0 mi Calm Calm - N/A   Scattered Clouds
8:40 AM 26.6 °F - 23.0 °F 86% 30.03 in 10.0 mi Calm Calm - N/A   Scattered Clouds
9:00 AM 28.4 °F - 23.0 °F 80% 30.02 in 10.0 mi Calm Calm - N/A   Scattered Clouds
9:20 AM 30.2 °F - 23.0 °F 75% 30.01 in 10.0 mi Calm Calm - N/A   Scattered Clouds
9:40 AM 32.0 °F 28.7 °F 26.6 °F 80% 30.01 in 10.0 mi NE 3.5 mph - N/A   Mostly Cloudy
10:00 AM 32.0 °F - 26.6 °F 80% 30.04 in 10.0 mi Calm Calm - N/A   Overcast
10:20 AM 32.0 °F - 26.6 °F 80% 30.06 in 5.0 mi Calm Calm - N/A Snow Light Snow
10:40 AM 35.6 °F - 28.4 °F 75% 30.05 in 10.0 mi Calm Calm - N/A   Overcast
11:00 AM 35.6 °F - 30.2 °F 81% 30.05 in 2.0 mi Calm Calm - N/A Snow Light Snow
11:20 AM 35.6 °F 32.8 °F 32.0 °F 87% 30.06 in 1.8 mi NW 3.5 mph - N/A Snow Light Snow
11:40 AM 35.6 °F 32.8 °F 32.0 °F 87% 30.05 in 2.5 mi WNW 3.5 mph - N/A Snow Light Snow
12:20 PM 37.4 °F 29.3 °F 28.4 °F 70% 30.04 in 7.0 mi NW 12.7 mph 18.4 mph N/A Snow Light Snow
12:40 PM 37.4 °F 29.8 °F 30.2 °F 75% 30.03 in 2.0 mi NW 11.5 mph 16.1 mph N/A Snow Light Snow
1:00 PM 35.6 °F 30.7 °F 32.0 °F 87% 30.04 in 1.0 mi WNW 5.8 mph - N/A Snow Light Snow
1:20 PM 35.6 °F 31.7 °F 32.0 °F 87% 30.04 in 2.0 mi WNW 4.6 mph - N/A Snow Light Snow
2:00 PM 35.6 °F 31.7 °F 32.0 °F 87% 30.06 in 5.0 mi NW 4.6 mph - N/A Snow Light Snow
2:20 PM 37.4 °F 30.8 °F 30.2 °F 75% 30.05 in 10.0 mi NW 9.2 mph - N/A   Overcast
2:40 PM 37.4 °F 32.1 °F 28.4 °F 70% 30.06 in 10.0 mi NW 6.9 mph - N/A   Overcast
3:00 PM 37.4 °F 32.8 °F 28.4 °F 70% 30.06 in 4.0 mi WNW 5.8 mph - N/A Snow Light Snow
3:20 PM 39.2 °F 33.0 °F 28.4 °F 65% 30.05 in 10.0 mi West 9.2 mph 16.1 mph N/A   Unknown
4:00 PM 33.8 °F 27.0 °F 30.2 °F 87% 30.11 in 1.2 mi NNW 8.1 mph 18.4 mph N/A Snow Light Snow
4:20 PM 35.6 °F 26.6 °F 28.4 °F 75% 30.11 in 10.0 mi NW 13.8 mph - N/A   Overcast
5:00 PM 37.4 °F 30.8 °F 26.6 °F 65% 30.12 in 10.0 mi NW 9.2 mph 16.1 mph N/A   Overcast
5:20 PM 37.4 °F 32.1 °F 26.6 °F 65% 30.12 in 10.0 mi NW 6.9 mph - N/A   Overcast
6:00 PM 37.4 °F 32.1 °F 26.6 °F 65% 30.14 in 10.0 mi WNW 6.9 mph - N/A   Overcast
6:20 PM 37.4 °F 31.4 °F 26.6 °F 65% 30.14 in 10.0 mi West 8.1 mph - N/A   Overcast
6:40 PM 37.4 °F 31.4 °F 26.6 °F 65% 30.15 in 10.0 mi NNW 8.1 mph - N/A   Overcast
7:00 PM 37.4 °F 29.3 °F 26.6 °F 65% 30.17 in 7.0 mi NW 12.7 mph 19.6 mph N/A Snow Light Snow
7:20 PM 37.4 °F 31.4 °F 26.6 °F 65% 30.18 in 10.0 mi WNW 8.1 mph - N/A   Overcast
8:00 PM 35.6 °F 29.9 °F 26.6 °F 70% 30.18 in 10.0 mi WNW 6.9 mph - N/A   Overcast
8:20 PM 35.6 °F 27.1 °F 24.8 °F 65% 30.20 in 10.0 mi NW 12.7 mph 20.7 mph N/A   Overcast
9:00 PM 35.6 °F 27.5 °F 23.0 °F 60% 30.20 in 10.0 mi WNW 11.5 mph 29.9 mph N/A   Overcast
9:20 PM 35.6 °F 28.6 °F 24.8 °F 65% 30.21 in 10.0 mi WNW 9.2 mph 21.9 mph N/A   Overcast
10:00 PM 35.6 °F 28.6 °F 23.0 °F 60% 30.21 in 10.0 mi NW 9.2 mph 20.7 mph N/A   Mostly Cloudy
10:20 PM 35.6 °F 26.6 °F 23.0 °F 60% 30.21 in 10.0 mi WNW 13.8 mph 20.7 mph N/A   Mostly Cloudy
10:40 PM 35.6 °F 27.5 °F 23.0 °F 60% 30.21 in 10.0 mi WNW 11.5 mph 20.7 mph N/A   Mostly Cloudy
11:00 PM 33.8 °F 27.0 °F 23.0 °F 65% 30.21 in 10.0 mi WNW 8.1 mph 19.6 mph N/A   Overcast
11:20 PM 33.8 °F 24.8 °F 23.0 °F 65% 30.21 in 10.0 mi WNW 12.7 mph 19.6 mph N/A   Overcast
11:40 PM 33.8 °F 24.3 °F 23.0 °F 65% 30.21 in 10.0 mi West 13.8 mph 24.2 mph N/A   Overcast